Regional Weather Roundup
Issued by NWS Upton, NY

Home | Current Version | Previous Version | Text Only | Print | Product List | Glossary On
Versions: 1 2 3 4 5 6 7 8 9 10 11 12 13 14 15 16 17 18 19 20 21 22 23 24 25 26 27 28 29 30 31 32 33 34 35 36 37 38 39 40 41 42 43 44 45 46 47 48
000
ASUS41 KOKX 070208
RWROKX

REGIONAL WEATHER ROUNDUP
NATIONAL WEATHER SERVICE NEW YORK NY
1000 PM EDT WED MAY 06 2015

NOTE: "FAIR" INDICATES FEW OR NO CLOUDS BELOW 12,000 FEET WITH NO
SIGNIFICANT WEATHER AND/OR OBSTRUCTIONS TO VISIBILITY.

NYZ071-072-176-178-NJZ106-104-070300-
NEW YORK CITY METRO AREA


CITY           SKY/WX    TMP DP  RH WIND       PRES   REMARKS
CENTRAL PARK   CLEAR     61  41  47 CALM      30.27R
LAGUARDIA APRT PTCLDY    63  40  42 SE3       30.24R
KENNEDY INTL   PTCLDY    57  45  64 E5        30.25R
NEWARK/LIBERTY PTCLDY    60  47  61 CALM      30.24R
BRNX BOT. GARD   N/A     57  43  58 E2        30.25F
TETERBORO      CLEAR     59  44  57 SW5       30.23R
$$

NYZ177-179-078>081-070300-
LONG ISLAND NEW YORK

CITY           SKY/WX    TMP DP  RH WIND       PRES   REMARKS
FARMINGDALE    CLEAR     57  44  62 CALM      30.25R
ISLIP          CLEAR     54  41  61 CALM      30.23R
SHIRLEY        CLEAR     51  39  63 CALM      30.25R
WESTHAMPTON    CLEAR     44  34  67 CALM      30.25S
MONTAUK POINT    N/A     46  36  68 CALM      30.26R
$$

NYZ052-065-067-070300-
HUDSON VALLEY

CITY           SKY/WX    TMP DP  RH WIND       PRES   REMARKS
WHITE PLAINS   CLEAR     54  44  69 CALM      30.24R
NEWBURGH       CLEAR     61  46  59 CALM      30.24R
MONTGOMERY     CLEAR     53  45  74 CALM      30.23R
POUGHKEEPSIE   CLEAR     55  44  66 CALM      30.22R
ALBANY         PTCLDY    65  37  35 S7        30.19R
$$

NJZ001-105-106-008-010-013-015-019>022-104-070300-
NEW JERSEY

CITY           SKY/WX    TMP DP  RH WIND       PRES   REMARKS
NEWARK/LIBERTY PTCLDY    60  47  61 CALM      30.24R
TETERBORO      CLEAR     59  44  57 SW5       30.23R
CALDWELL       CLEAR     58  46  64 CALM      30.25R
MORRISTOWN     CLEAR     59  46  63 CALM      30.24S
SOMERVILLE     CLEAR     55  46  71 CALM      30.23R
SUSSEX         CLEAR     54  48  80 CALM      30.25R
ANDOVER          N/A     53  47  79 CALM      30.24R
TRENTON        CLEAR     58  47  66 CALM      30.24R
MILLVILLE      MOCLDY    64  50  60 NE7       30.22R
ATLANTIC CITY  CLOUDY    60  51  72 NE5       30.23R
WRIGHTSTOWN    CLEAR     55  50  82 E2        30.22R
TOMS RIVER     PTCLDY    52  48  87 CALM      30.25R
BELMAR         CLEAR     54  45  71 CALM      30.25R
$$

PAZ047>061-062-071-070300-
EASTERN PENNSYLVANIA

CITY           SKY/WX    TMP DP  RH WIND       PRES   REMARKS
PHILADELPHIA   MOCLDY    63  50  62 E7        30.24R
ALLENTOWN      CLOUDY    61  49  64 CALM      30.23S
SCRANTON       CLEAR     58  50  75 CALM      30.23R
$$

CTZ002-004>006-009-010-012-RIZ004-006-007-MAZ004-011-015-070300-
SOUTHERN NEW ENGLAND
 IN CT

CITY           SKY/WX    TMP DP  RH WIND       PRES   REMARKS
BRADLEY INTL   CLEAR     61  30  31 S7        30.22R
HARTFORD       CLEAR     58  30  34 S5        30.23S
DANBURY        CLEAR     50  41  71 CALM      30.25S
WTRBRY/OXFORD  CLEAR     55  30  38 S5        30.26S
BRIDGEPORT     CLEAR     56  42  59 CALM      30.24S
MERIDEN        CLEAR     52  37  56 CALM      30.24R
NEW HAVEN      CLEAR     50  37  61 CALM      30.24S
CHESTER        FAIR      55  32  41 SW3       30.25S
GROTON         CLEAR     49  34  56 CALM      30.23S
WILLIMANTIC    CLEAR     55  33  43 CALM      30.24R

 IN RI

CITY           SKY/WX    TMP DP  RH WIND       PRES   REMARKS
PROVIDENCE     PTCLDY    55  32  41 SW6       30.23R
BLOCK ISLAND   CLEAR     50  36  57 W6        30.23F
WESTERLY       CLEAR     49  35  58 CALM      30.24S

 IN MA

CITY           SKY/WX    TMP DP  RH WIND       PRES   REMARKS
BOSTON         PTCLDY    61  31  32 SW14G23   30.20R
WORCESTER      CLEAR     59  32  36 SW13      30.22R
WESTFIELD      CLEAR     61  35  37 S9        30.21R
PROVINCETOWN   CLEAR     54  37  54 SW10      30.21S
NANTUCKET      CLEAR     46  39  76 S5        30.23R
$$

ANZ330-335-338-340-345-350-353-355-070300-
COASTAL MARINE OBSERVATIONS


STATION/POSITION TIME  SKY/WX   TEMP    WIND        PRES    VSBY  WAVE
                                AIR SEA DIR/SP/G                  HT/PER
                 (UTC)          (F)     (DEG/KT/KT) (MB)    (MI)  (FT/S)
NY HARB ENTRANCE 0150            53 53   60/  4/  4 1023.6          2/10
4S FIRE IS       0103               51                N/A           2/ 6
20S FIRE ISLAND  0150            50 49   40/  4/  6 1023.7          2/ 5
GREAT SOUTH BAY  0100            59 61  120/  6/  6   N/A
23SW MTP         0150            49 48  350/  4/  4 1023.7          2/ 7
HUDSON CANYON    NOT AVBL
KINGS POINT      0100            58 50  150/  1/  2 1023.2
EASTERN LI SOUND 0100            53      CALM  /  2   N/A
ROBBINS REEF     0100            58     180/  8/  8 1022.8
$$


>>>>>>>>>>>>>>>>>>>>>>>>>>>> KEY <<<<<<<<<<<<<<<<<<<<<<<<<<<
>                                                          <
>     SKY/WX - SKY CONDITION/PRESENT WEATHER               <
>     TMP    - TEMPERATURE IN FAHRENHEIT                   <
>     DP     - DEWPOINT IN FAHRENHEIT                      <
>     RH     - RELATIVE HUMIDITY IN PERCENT                <
>     WIND   - DIRECTION AND SPEED IN MPH                  <
>     PRES   - MEAN SEA LEVEL PRESSURE IN INCHES OF HG     <
>     WCI    - WIND CHILL INDEX                            <
>     VSB    - VISIBILITY IN MILES                         <
>     HX     - HEAT INDEX                                  <
>     TC     - TEMPERATURE IN CELSIUS                      <
>     VRB    - VARIABLE WIND DIRECTION                     <
>                                                          <
>>>>>>>>>>>>>>>>>>>>>>>>>>>> KEY <<<<<<<<<<<<<<<<<<<<<<<<<<<




USA.gov is the U.S. government's official web portal to all federal, state and local government web resources and services.